Regional Weather Roundup
Issued by NWS

Home | Current Version | Previous Version | Graphics & Text | Print | Product List | Glossary On
Versions: 1 2 3 4 5 6 7 8 9 10 11 12 13 14 15 16 17 18 19 20 21 22 23 24 25 26 27 28 29 30 31 32 33 34 35 36 37 38 39 40 41 42 43 44 45 46 47 48 49 50
737
ASUS44 KJAN 210403
RWRMS

MISSISSIPPI HOURLY WEATHER ROUNDUP
NATIONAL WEATHER SERVICE JACKSON MS
1100 PM CDT MON APR 20 2015

NOTE: "FAIR: INDICATES FEW OR NO CLOUDS BELOW 12,000 FEET WITH NO
SIGNIFICANT WEATHER AND/OR OBSTRUCTIONS TO VISIBILITY.

MSZ001>002-007>008-010>013-018>021-025>028-034>036-210500-
NORTHWEST MISSISSIPPI

CITY           SKY/WX    TMP DP  RH WIND       PRES   REMARKS
CLARKSDALE     FAIR      57  46  67 SW5       29.96S
CLEVELAND      FAIR      55  52  89 SW3       29.97R
GREENWOOD      CLEAR     51  47  86 CALM      29.97R
GREENVILLE     CLEAR     55  44  66 W3        29.97R
OLIVE BRANCH   CLEAR     54  43  66 NW5       29.95R
OXFORD         FAIR      46  45  93 CALM      29.97R
TUNICA         CLEAR     54  45  71 W7        29.96R
$$

MSZ003>006-009-014>017-022>024-029>033-037>039-210500-
NORTHEAST MISSISSIPPI

CITY           SKY/WX    TMP DP  RH WIND       PRES   REMARKS
COLUMBUS AFB   CLEAR     51  48  92 W1        29.96R
CORINTH        FAIR      50  46  87 CALM      29.93S
GOLDN TRIANGLE CLEAR     54  46  76 SW3       29.96R
STARKVILLE     FAIR      46  46 100 CALM      29.98R
TUPELO         CLEAR     53  45  74 CALM      29.95R
$$

MSZ040-058-210500-
CENTRAL MISSISSIPPI

CITY           SKY/WX    TMP DP  RH WIND       PRES   REMARKS
JACKSON INTL   PTCLDY    54  49  83 CALM      29.98R
JACKSON HAWKNS PTCLDY    55  50  83 CALM      29.98S
MERIDIAN KEY   MOCLDY    54  50  86 S5        29.98R
MERIDIAN NAS   PTCLDY    55  48  77 CALM      29.98R
RAYMOND        FAIR      54  48  82 MISG      29.98R
VICKSBURG      PTCLDY    54  51  90 CALM      29.99R
$$

MSZ059>079-210500-
SOUTH MISSISSIPPI

CITY           SKY/WX    TMP DP  RH WIND       PRES   REMARKS
BROOKHAVEN       N/A     54  54 100 CALM      30.00S
HATTIESBURG    MOCLDY    61  50  67 N5        29.98S
MCCOMB         MOCLDY    57  53  86 CALM      29.98S
NATCHEZ        MOCLDY    55  52  88 CALM      29.99S
PINE BELT      MOCLDY    57  46  67 CALM      29.98F
$$

MSZ080>082-210500-
COASTAL MISSISSIPPI

CITY           SKY/WX    TMP DP  RH WIND       PRES   REMARKS
BILOXI         PTCLDY    66  53  63 VRB3      29.96R
PASCAGOULA     CLEAR     63  55  75 NW3       29.95S
GULFPORT       PTCLDY    65  52  62 N6        29.96R
$$



USA.gov is the U.S. government's official web portal to all federal, state and local government web resources and services.